Location: Rimrock Meadows
(47.4808°N, 119.7286°W)
Time: 02:27:54
(UTC-08:00)

Daily predictions for brighter satellites

Satellite Brightness Start Highest point End
(mag) Time Altitude Azimuth Time Altitude Azimuth Time Altitude Azimuth
SL-16 R/B 4.4 03:22:03 20° ENE 03:22:03 20° ENE 03:24:03 10° NE
Cosmos 2237 Rocket 4.4 03:52:11 17° NNE 03:52:11 17° NNE 03:53:21 10° NNE
Cosmos 2369 Rocket 3.7 04:10:40 28° NNE 04:12:01 32° NE 04:17:05 10° ESE
CENTAUR R/B 2.9 04:14:51 60° NNE 04:14:51 60° NNE 04:20:40 10° NE
Lacrosse 5 4.1 04:14:07 17° SSE 04:16:12 21° ESE 04:19:58 10° ENE
ATLAS 5 CENTAUR R/B 4.3 04:20:03 15° N 04:20:03 15° N 04:22:05 10° NNE
Cosmos 2219 Rocket 4.3 04:26:03 15° N 04:26:03 15° N 04:27:09 10° NNE
COSMO-SKYMED 1 3.9 04:26:14 10° SE 04:30:13 36° ENE 04:30:31 36° ENE
Lacrosse 4 Rocket 4.0 04:33:41 13° NNE 04:34:15 13° NE 04:36:20 10° ENE
ATLAS 3B R/B 4.3 04:34:49 21° N 04:35:20 21° N 04:40:33 10° NE
Meteor 1-20 Rocket 4.3 04:32:57 10° S 04:38:28 71° E 04:43:57 10° NNE
Lacrosse 5 rocket 3.5 04:42:30 19° NNE 04:42:30 19° NNE 04:44:14 10° NE
Tiangong 2 4.1 04:44:45 16° ESE 04:44:45 16° ESE 04:45:34 10° ESE
Cosmos 2333 Rocket 4.0 04:46:13 18° N 04:46:13 18° N 04:48:00 10° NNE
Cosmos 1633 4.4 04:48:24 10° SSE 04:51:37 30° E 04:54:51 10° NNE
Cosmos 1943 Rocket 3.7 04:50:35 17° N 04:54:00 31° NE 04:58:51 10° ESE
SL-08 ROCKET BODY 4.2 04:56:26 10° SSW 05:02:23 75° W 05:08:17 10° N
SL-16 R/B 2.6 05:03:59 43° NNW 05:03:59 43° NNW 05:08:32 10° NNE
Cosmos 1602 4.4 05:02:34 10° S 05:06:26 54° E 05:10:19 10° NNE
Cosmos 2327 Rocket 4.4 05:00:16 10° SSW 05:06:37 75° W 05:12:57 10° N
Meteor 1-19 Rocket 4.4 05:06:10 10° N 05:12:05 78° E 05:17:51 10° SSE
CZ-4C R/B 4.2 05:10:06 17° NNW 05:12:34 21° N 05:17:42 10° ENE
Cosmos 2056 Rocket 3.4 05:14:22 56° W 05:14:47 58° WSW 05:19:47 10° S
Cosmos 2074 Rocket 3.9 05:09:46 10° SSW 05:15:58 62° WNW 05:22:11 10° N
SL-23 DEB 3.7 05:16:38 59° ENE 05:16:38 59° ENE 05:19:32 10° ESE
ADEOS II 3.6 05:11:50 10° N 05:13:47 21° NNW 05:13:47 21° NNW
Abrixas rocket 3.9 05:16:06 26° S 05:16:48 28° SSE 05:19:45 10° E
SKYMED 2 3.4 05:13:52 10° S 05:18:12 76° WSW 05:19:09 53° NNW
Cosmos 2263 4.5 05:16:25 22° NNW 05:20:07 66° ENE 05:25:41 10° SE
Meteor 1-25 Rocket 4.4 05:15:40 10° SSW 05:21:17 49° WNW 05:26:55 10° N
Cosmos 2341 Rocket 4.5 05:15:39 10° S 05:21:49 62° E 05:27:59 10° NNE
Meteor 1-28 Rocket 3.5 05:18:25 10° SSE 05:22:10 65° ENE 05:24:18 24° N
Meteor 1-11 Rocket 3.9 05:18:06 10° S 05:23:54 75° E 05:29:38 10° NNE
Cosmos 1624 Rocket 4.3 05:27:44 41° W 05:28:15 42° WSW 05:33:13 10° S
Ariane Rocket 3.3 05:23:33 10° NNE 05:28:36 67° ESE 05:33:37 10° S
SJ-6F 4.4 05:26:51 10° N 05:30:51 57° WNW 05:34:51 10° SSW
Cosmos 1340 4.1 05:27:44 10° N 05:31:18 37° ENE 05:34:50 10° SE
Meteor 1-13 Rocket 4.3 05:25:51 12° NNW 05:31:26 64° W 05:37:17 10° S
Cosmos 2237 Rocket 3.9 05:34:02 17° NNW 05:34:02 17° NNW 05:36:30 10° N
Cosmos 2184 Rocket 4.1 05:27:21 10° SSW 05:33:17 48° WNW 05:39:19 10° N
DMSP B5D1-3 4.4 05:28:41 10° S 05:33:48 70° WSW 05:38:20 14° NNW
Okean 2 4.3 05:33:10 10° N 05:37:16 50° ENE 05:41:20 10° SSE
Meteor 1-23 Rocket 4.2 05:33:25 10° N 05:39:01 81° ENE 05:44:35 10° SSE
CSL-04 Rocket 4.0 05:35:16 10° NNE 05:40:50 70° ESE 05:46:19 10° S
CZ-3 R/B 4.1 05:40:14 10° SSW 05:41:15 10° SSW 05:42:11 10° S
CZ-2C R/B 4.4 05:37:14 10° NNE 05:41:52 32° E 05:46:24 10° SSE
Cosmos 1025 Rocket 3.0 05:37:37 11° N 05:41:55 89° WSW 05:46:16 10° S
USA 215 3.3 05:36:26 10° NE 05:43:00 82° SE 05:49:33 10° SW
Radarsat Rocket 4.4 05:40:42 10° NNE 05:47:38 72° WNW 05:55:28 10° SSW
Cosmos 2154 Rocket 3.9 05:42:49 10° SSW 05:49:00 68° W 05:55:12 10° N
Meteor 2-4 Rocket 3.6 05:43:59 10° NNW 05:49:28 74° W 05:55:05 10° S
IDEFIX/ARIANE 42P 4.2 05:45:07 10° NNE 05:49:54 36° E 05:54:40 10° SSE
CZ-4 R/B 2.6 05:49:04 10° NNE 05:52:52 42° E 05:56:35 10° S
Cosmos 44 Rocket 3.3 05:50:15 10° SW 05:55:26 73° NW 06:00:33 10° NE
Cosmos 2369 Rocket 2.4 05:52:30 20° NW 05:56:19 52° WSW 06:01:48 10° S
Cosmos 1536 2.7 05:53:54 10° SSW 05:57:52 64° W 06:01:53 10° N
Lacrosse 5 1.8 05:53:30 10° SW 05:58:37 87° NW 06:03:46 10° NE
Okean 1 Rocket 3.4 05:56:13 10° SSW 06:00:23 42° WNW 06:04:34 10° N
Cosmos 1603 4.0 05:55:33 10° SW 06:00:58 44° NW 06:06:23 10° NNE
Cosmos 1900 4.3 05:58:04 20° NW 06:01:25 70° WSW 06:06:18 10° SSE
Meteor 1-5 Rocket 4.3 05:57:29 10° S 06:02:49 75° E 06:08:07 10° NNE
Cosmos 1544 Rocket 4.2 05:59:10 10° S 06:03:26 59° E 06:07:46 10° NNE
Cosmos 1452 Rocket 3.7 05:59:54 15° NW 06:04:03 52° WSW 06:09:08 10° S
SL-24 DEB 4.4 05:59:26 10° S 06:04:08 55° W 06:08:53 10° NNW
CENTAUR R/B 3.6 06:02:04 20° WNW 06:05:24 30° NNW 06:11:43 10° NE
Meteor 2-8 Rocket 4.4 05:59:17 10° N 06:05:30 83° W 06:11:39 10° S
ATLAS 5 CENTAUR R/B 4.1 06:01:36 10° NNW 06:05:33 20° NNE 06:09:50 10° ENE
COSMO-SKYMED 1 3.6 06:02:52 10° SSW 06:06:27 25° W 06:07:43 22° WNW
Lacrosse 4 Rocket 1.5 06:10:03 13° NNW 06:13:46 72° ENE 06:17:50 10° SE
Tiangong 2 2.8 06:16:48 14° WSW 06:18:50 24° SSW 06:21:28 10° SE
IRS-1A Rocket 4.3 06:13:25 10° NNE 06:19:09 85° WNW 06:24:57 10° SSW
GRACE-2 4.1 06:16:52 10° N 06:19:34 46° W 06:22:15 10° SSW
Cosmos 1515 4.4 06:16:02 10° N 06:19:50 57° ENE 06:23:37 10° SSE
GRACE-1 4.1 06:17:17 10° NNW 06:19:59 45° W 06:22:40 10° SSW
SL-8 Rocket 4.0 06:13:52 10° S 06:20:08 82° W 06:26:24 10° N
SOZ 3.8 06:19:14 26° W 06:20:08 57° NNW 06:22:12 10° ENE
Lacrosse 5 rocket 3.0 06:18:13 14° NW 06:20:55 24° N 06:24:34 10° ENE
Cosmos 1892 Rocket 3.7 06:19:47 10° NNW 06:24:10 57° W 06:28:33 10° S
Cosmos 1943 3.2 06:19:15 10° SW 06:24:47 58° WNW 06:30:23 10° NNE
Cosmos 1633 3.9 06:23:59 10° WSW 06:26:42 20° WNW 06:29:26 10° NNW
ATLAS 3B R/B 4.1 06:22:33 10° NW 06:28:32 28° NNE 06:34:15 10° E
Cosmos 2366 rocket 4.1 06:25:51 10° S 06:32:09 89° W 06:38:33 10° N
Cosmos 1959 Rocket 4.4 06:28:12 10° SSW 06:34:18 76° W 06:40:26 10° N
USA 129 3.9 06:34:29 10° SW 06:35:19 13° WSW 06:35:19 13° WSW
Cosmos 1626 Rocket 3.8 06:33:23 10° N 06:37:52 74° E 06:42:15 10° SSE
Cosmos 1943 Rocket 2.4 06:32:40 10° NW 06:37:59 50° WSW 06:43:15 10° S
PAYLOAD A 4.2 06:33:48 10° N 06:39:05 61° WNW 06:44:26 10° SSW
Cosmos 2218 Rocket 4.0 06:32:52 10° SSW 06:39:15 72° W 06:45:39 10° N
Helios 1B rocket 2.6 06:36:58 10° S 06:41:02 53° W 06:45:07 10° NNW
Cosmos 839 Rocket 4.2 06:34:55 10° NW 06:41:30 59° WSW 06:47:29 10° SSE
Cosmos 1975 3.0 06:38:14 10° S 06:42:19 79° E 06:46:27 10° NNE
Cosmos 1269 Rocket 4.0 06:40:36 10° SSW 06:45:53 74° WNW 06:51:14 10° NNE
Cosmos 158 Rocket 4.3 06:42:23 10° SSW 06:47:41 77° ESE 06:53:05 10° NNE
SL-16 R/B 4.0 06:46:16 10° WNW 06:48:40 13° NNW 06:51:05 10° N
SMAP 3.1 06:46:43 10° N 06:51:21 65° WNW 06:55:57 10° SSW
Cosmos 1500 3.3 06:48:10 10° S 06:51:55 81° E 06:55:43 10° N
Cosmos 1461 4.1 06:48:15 10° SSW 06:52:24 48° ESE 06:56:25 10° NE
Cosmos 1455 Rocket 3.1 06:48:28 10° SSW 06:52:42 55° WNW 06:56:59 10° N
Abrixas rocket 2.3 06:50:08 10° WSW 06:53:31 89° S 06:56:53 10° ENE
Cosmos 44 3.8 06:48:50 10° WSW 06:53:56 46° NW 06:58:52 10° NNE
MSX 4.0 06:48:40 10° NNE 06:54:27 81° ESE 07:00:12 10° SSW
Cosmos 405 Rocket 3.2 06:52:17 10° N 06:56:05 63° ENE 06:59:49 10° SSE
Cosmos 2084 3.1 06:55:29 10° SW 06:59:21 86° NW 07:03:10 10° NE
Cosmos 1727 Rocket 4.2 06:54:25 10° NNW 07:00:25 54° W 07:06:25 10° SSW
Cosmos 1656 Rocket 3.8 06:56:49 10° NNW 07:02:27 67° WSW 07:08:05 10° SSE
CZ-4C R/B 3.8 06:56:44 10° NNW 07:03:01 39° NE 07:10:03 10° ESE
USA 229 DEB 3.7 06:57:12 10° SW 07:04:04 68° NW 07:11:04 10° NE
USA 229 3.7 06:57:17 10° SW 07:04:10 69° NW 07:11:10 10° NE
